(276346) = 2002 TP376

Discovered at Anderson Mesa on 2002-10-05 by LONEOS.

Orbit

Orbit type: Main Belt

Note: WebGL enabled browser required.

epoch2023-09-13.0
epoch JD2460200.5
perihelion date2025-08-19.64317
perihelion JD2460907.14317
argument of perihelion (°)331.30367
ascending node (°)62.28218
inclination (°)28.71814
eccentricity0.1759275
perihelion distance (AU)2.6271933
Tisserand w.r.t. Jupiter3.0
ΔV w.r.t. Earth (km/sec)13.5
semimajor axis (AU)3.1880610
mean anomaly (°)237.64715
mean daily motion (°/day)0.17314660
aphelion distance (AU)3.749
period (years)5.69
P-vector [x]0.78077209
P-vector [y]0.62451809
P-vector [z]0.01928979
Q-vector [x]-0.45766920
Q-vector [y]0.55061474
Q-vector [z]0.69811339
absolute magnitude15.19
phase slope0.15
uncertainty0
referenceMPEC 2023-N24
observations used449
oppositions11
arc length (days)7580
first opposition used2002
last opposition used2023
residual rms (arc-secs)0.75
perturbers coarse indicatorM-v
perturbers precise indicator003Ek
first observation date used2002-10-05.0
last observation date used2023-07-07.0
computer nameMPCLINUX
JD of orbit computation2455941.223664
perihelion JD uncertainty (days)3.9221E-04
argument of perihelion uncertainty (°)4.8568E-05
ascending node uncertainty (°)1.5411E-05
inclination uncertainty (°)2.0111E-05
eccentricity uncertainty 4.2085E-07
perihelion distance uncertainty (AU)1.2638E-06
Minimum Orbit Intersection Distances (in AU)
for orbit epoch: 2460000.5, reference: E2023-N24
Mercury2.31129
Venus1.91834
Earth1.66052
Mars1.17207
Jupiter1.69755
Saturn6.21532
Uranus15.0552
Neptune26.9756

Observations

457 total observations over interval: 2002 10 05.40661 – 2023 07 07.342519
These data are available for download (format description).

Date (UT) J2000 RA J2000 Dec Magn Location Ref
2002 10 05.40661 03 23 30.25 -03 41 13.5 18.9 R 699 – Lowell Observatory-LONEOS MPS 182562
2002 10 05.42413 03 23 29.50 -03 41 10.7   699 – Lowell Observatory-LONEOS MPS 182562
2002 10 05.44158 03 23 28.90 -03 41 08.7   699 – Lowell Observatory-LONEOS MPS 182562
2002 10 05.45909 03 23 28.26 -03 41 07.0   699 – Lowell Observatory-LONEOS MPS 182562
2002 10 10.46424 03 20 06.97 -03 32 34.4 18.9   644 – Palomar Mountain/NEAT MPS 182562
2002 10 10.47490 03 20 06.48 -03 32 33.4 19.1   644 – Palomar Mountain/NEAT MPS 182562
2002 10 10.48549 03 20 06.04 -03 32 32.0 19.2   644 – Palomar Mountain/NEAT MPS 182562
2002 10 30.25928 03 01 25.83 -02 27 35.6 18.9   704 – Lincoln Laboratory ETS, New Mexico MPS 182562
2002 10 30.27676 03 01 24.62 -02 27 31.0 18.3   704 – Lincoln Laboratory ETS, New Mexico MPS 182562
2002 10 30.29412 03 01 23.44 -02 27 26.1 18.9   704 – Lincoln Laboratory ETS, New Mexico MPS 182562
2002 10 30.31158 03 01 22.28 -02 27 20.3 18.8   704 – Lincoln Laboratory ETS, New Mexico MPS 182562
2002 10 30.32905 03 01 21.12 -02 27 15.8 19.0   704 – Lincoln Laboratory ETS, New Mexico MPS 182562
2002 11 06.33724 02 53 30.00 -01 49 13.4 18.6   644 – Palomar Mountain/NEAT MPS 182562
2002 11 06.35849 02 53 28.50 -01 49 06.0 18.4   644 – Palomar Mountain/NEAT MPS 182562
2002 11 06.37960 02 53 27.05 -01 48 58.0 18.8   644 – Palomar Mountain/NEAT MPS 182562
2002 11 22.28039 02 36 13.41 +00 08 28.6 19.0   644 – Palomar Mountain/NEAT MPS 182562
2002 11 22.30178 02 36 12.11 +00 08 39.7 19.0   644 – Palomar Mountain/NEAT MPS 182562
2002 11 22.32308 02 36 10.81 +00 08 50.7 19.0   644 – Palomar Mountain/NEAT MPS 182562
2002 11 30.20918 02 28 58.93 +01 21 00.5 18.7   704 – Lincoln Laboratory ETS, New Mexico MPS 182562
2002 11 30.22398 02 28 58.11 +01 21 09.5 19.2   704 – Lincoln Laboratory ETS, New Mexico MPS 182562
2002 11 30.23867 02 28 57.38 +01 21 18.0 18.9   704 – Lincoln Laboratory ETS, New Mexico MPS 182562
2002 11 30.25347 02 28 56.72 +01 21 26.4 19.8   704 – Lincoln Laboratory ETS, New Mexico MPS 182562
2002 12 08.28832 02 23 04.75 +02 42 15.6 19.5   644 – Palomar Mountain/NEAT MPS 182562
2002 12 08.30851 02 23 03.97 +02 42 28.0 19.3   644 – Palomar Mountain/NEAT MPS 182562
2002 12 08.32989 02 23 03.13 +02 42 41.4 19.2   644 – Palomar Mountain/NEAT MPS 182562
2008 09 28.36065 04 59 44.13 +17 30 48.5   704 – Lincoln Laboratory ETS, New Mexico MPS 407509
2008 09 28.37280 04 59 44.31 +17 30 52.7   704 – Lincoln Laboratory ETS, New Mexico MPS 407509
2008 09 28.39728 04 59 44.72 +17 31 03.9   704 – Lincoln Laboratory ETS, New Mexico MPS 407509
2008 10 22.48216 04 57 56.56 +20 40 30.5 19.5 V 691 – Steward Observatory, Kitt Peak-Spacewatch MPS 265183
2008 10 22.49983 04 57 56.07 +20 40 39.5 19.6 V 691 – Steward Observatory, Kitt Peak-Spacewatch MPS 265183
2008 10 22.51751 04 57 55.56 +20 40 48.7 19.4 V 691 – Steward Observatory, Kitt Peak-Spacewatch MPS 265183
2008 10 30.43342 04 53 28.61 +21 49 43.3 20.9 V 691 – Steward Observatory, Kitt Peak-Spacewatch MPS 265183
2008 10 30.45114 04 53 27.86 +21 49 53.0 19.6 V 691 – Steward Observatory, Kitt Peak-Spacewatch MPS 265183
2008 10 30.46886 04 53 27.11 +21 50 02.1 19.6 V 691 – Steward Observatory, Kitt Peak-Spacewatch MPS 265183
2008 11 01.31503 04 52 08.41 +22 06 25.8   704 – Lincoln Laboratory ETS, New Mexico MPS 407509
2008 11 01.32688 04 52 07.89 +22 06 32.4   704 – Lincoln Laboratory ETS, New Mexico MPS 407509
2008 11 01.33859 04 52 07.39 +22 06 38.5   704 – Lincoln Laboratory ETS, New Mexico MPS 407509
2008 11 01.35042 04 52 06.85 +22 06 45.7   704 – Lincoln Laboratory ETS, New Mexico MPS 407509
2008 11 01.36225 04 52 06.22 +22 06 50.6   704 – Lincoln Laboratory ETS, New Mexico MPS 407509
2008 11 05.40958 04 48 52.11 +22 42 59.8   701 – Junk Bond Observatory, Sierra Vista MPS 265183
2008 11 05.42021 04 48 51.60 +22 43 05.4   701 – Junk Bond Observatory, Sierra Vista MPS 265183
2008 11 05.44080 04 48 50.50 +22 43 16.1   701 – Junk Bond Observatory, Sierra Vista MPS 265183
2008 11 05.44553 04 48 50.12 +22 43 18.9   701 – Junk Bond Observatory, Sierra Vista MPS 265183
2008 11 05.46447 04 48 49.26 +22 43 28.2   701 – Junk Bond Observatory, Sierra Vista MPS 265183
2008 11 05.48814 04 48 48.15 +22 43 40.7   701 – Junk Bond Observatory, Sierra Vista MPS 265183
2008 11 05.49287 04 48 47.71 +22 43 44.3   701 – Junk Bond Observatory, Sierra Vista MPS 265183
2008 11 08.43610 04 46 09.42 +23 10 05.8 19.2 V 691 – Steward Observatory, Kitt Peak-Spacewatch MPS 265183
2008 11 08.45377 04 46 08.41 +23 10 15.4 19.1 V 691 – Steward Observatory, Kitt Peak-Spacewatch MPS 265183
2008 11 08.47144 04 46 07.37 +23 10 24.7 19.3 V 691 – Steward Observatory, Kitt Peak-Spacewatch MPS 265183
2008 11 17.38661 04 36 53.16 +24 29 21.1 19.3 V 691 – Steward Observatory, Kitt Peak-Spacewatch MPS 265183
2008 11 17.40425 04 36 51.95 +24 29 30.6 19.1 V 691 – Steward Observatory, Kitt Peak-Spacewatch MPS 265183
2008 11 17.42232 04 36 50.66 +24 29 39.7 19.1 V 691 – Steward Observatory, Kitt Peak-Spacewatch MPS 265183
2008 11 18.12530 04 36 02.93 +24 35 44.5 18.5 V J75 – OAM Observatory, La Sagra MPS 265183
2008 11 18.13884 04 36 01.98 +24 35 52.5 18.3 V J75 – OAM Observatory, La Sagra MPS 265183
2008 11 18.15189 04 36 01.07 +24 35 58.7 18.4 V J75 – OAM Observatory, La Sagra MPS 265183
2008 11 20.38420 04 33 26.47 +24 55 09.2 19.1   704 – Lincoln Laboratory ETS, New Mexico MPS 265183
2008 11 20.39679 04 33 25.57 +24 55 15.9 19.4   704 – Lincoln Laboratory ETS, New Mexico MPS 265183
2008 11 20.40945 04 33 24.64 +24 55 21.7 19.4   704 – Lincoln Laboratory ETS, New Mexico MPS 265183
2008 11 20.42198 04 33 23.80 +24 55 29.0 19.6   704 – Lincoln Laboratory ETS, New Mexico MPS 265183
2008 11 20.43478 04 33 22.81 +24 55 34.9 19.3   704 – Lincoln Laboratory ETS, New Mexico MPS 265183
2008 11 25.25384 04 27 36.18 +25 35 48.4 18.9   704 – Lincoln Laboratory ETS, New Mexico MPS 266399
2008 11 25.26623 04 27 35.26 +25 35 54.7 19.2   704 – Lincoln Laboratory ETS, New Mexico MPS 266399
2008 11 25.27863 04 27 34.34 +25 36 00.9 19.2   704 – Lincoln Laboratory ETS, New Mexico MPS 266399
2008 11 25.29125 04 27 33.38 +25 36 05.3 19.4   704 – Lincoln Laboratory ETS, New Mexico MPS 266399
2008 11 25.30364 04 27 32.39 +25 36 13.4 20.1   704 – Lincoln Laboratory ETS, New Mexico MPS 266399
2008 12 03.27643 04 17 41.63 +26 38 20.3 19.2   704 – Lincoln Laboratory ETS, New Mexico MPS 267440
2008 12 03.28900 04 17 40.71 +26 38 25.6 19.1   704 – Lincoln Laboratory ETS, New Mexico MPS 267440
2008 12 03.30151 04 17 39.74 +26 38 32.0 19.1   704 – Lincoln Laboratory ETS, New Mexico MPS 267440
2008 12 06.17233 04 14 09.17 +26 59 19.7   691 – Steward Observatory, Kitt Peak-Spacewatch MPS 270067
2008 12 06.17480 04 14 09.01 +26 59 21.4   691 – Steward Observatory, Kitt Peak-Spacewatch MPS 270067
2008 12 06.19003 04 14 07.86 +26 59 27.4   691 – Steward Observatory, Kitt Peak-Spacewatch MPS 270067
2008 12 06.19250 04 14 07.69 +26 59 28.6   691 – Steward Observatory, Kitt Peak-Spacewatch MPS 270067
2008 12 06.20772 04 14 06.53 +26 59 32.8   691 – Steward Observatory, Kitt Peak-Spacewatch MPS 270067
2008 12 06.21020 04 14 06.36 +26 59 36.2   691 – Steward Observatory, Kitt Peak-Spacewatch MPS 270067
2008 12 06.25074 04 14 03.35 +26 59 53.5 18.8   704 – Lincoln Laboratory ETS, New Mexico MPS 268783
2008 12 06.26329 04 14 02.41 +26 59 58.9 19.1   704 – Lincoln Laboratory ETS, New Mexico MPS 268783
2008 12 06.28855 04 14 00.52 +27 00 08.9 19.1   704 – Lincoln Laboratory ETS, New Mexico MPS 268783
2008 12 06.30107 04 13 59.60 +27 00 14.9 19.0   704 – Lincoln Laboratory ETS, New Mexico MPS 268783
2008 12 19.21149 03 59 31.13 +28 22 56.7 19.3   704 – Lincoln Laboratory ETS, New Mexico MPS 269215
2008 12 19.22409 03 59 30.27 +28 23 00.5 19.6   704 – Lincoln Laboratory ETS, New Mexico MPS 269215
2008 12 19.23670 03 59 29.56 +28 23 04.2 19.6   704 – Lincoln Laboratory ETS, New Mexico MPS 269215
2008 12 19.24931 03 59 28.77 +28 23 10.4 19.6   704 – Lincoln Laboratory ETS, New Mexico MPS 269215
2010 05 12.900699 10 53 05.12 +39 59 39.1   C51 – WISE MPS 341691
2010 05 13.033003 10 53 06.82 +39 58 14.9   C51 – WISE MPS 341691
2010 05 13.165308 10 53 08.57 +39 56 49.9   C51 – WISE MPS 341691
